Home > Weather > Hiroshima > Past weeks

Flag for Japan Weather for the Past 2 Weeks in Hiroshima, Japan

Now
61 °F

Mostly cloudy.


Feels Like: 61 °F
Forecast: 31 / 39 °F
Wind: 17 mph from Southwest

Location: Iwakuni Marine Corps Air Station

Current Time: Feb 14, 2016 at 9:59:29 AM

Latest Report: Feb 14, 2016 at 7:55 AM


Visibility: N/A

Pressure: 29.67 "Hg

Humidity: 83%

Dew point: 56 °F

Location of HiroshimaLocation

Historic Weather in Hiroshima — Graph

°F

Hiroshima Temperature Yesterday

Maximum temperature yesterday: 57 °F (at 10:55 PM)
Minimum temperature yesterday: 52 °F (at 1:55 AM)
Average temperature yesterday: 55 °F

High & Low Weather Summary for the Past Weeks

 TemperatureHumidityPressure
High63 °F (Feb 14, 5:55 AM)97% (Feb 1, 11:55 PM)30.44 "Hg (Feb 1, 11:55 PM)
Low33 °F (Feb 10, 6:55 AM)23% (Feb 9, 2:55 PM)29.60 "Hg (Feb 14, 4:55 AM)
Average45 °F69%30.15 "Hg
* Reported Jan 30 7:55 AM — Feb 14 7:55 AM, Hiroshima, Weather by CustomWeather, © 2016

Note: Actual official high and low records may vary slightly from our data, if they occured in-between our weather recording intervals... More about our weather records

Advertising

Hiroshima Weather History for the Previous 24 Hours

 ConditionsComfort  
Time TempWeatherWind HumidityBarometerVisibility
7:55 AM
Sun, Feb 14
61 °FMostly cloudy.17 mph83%29.67 "HgN/A
6:55 AM61 °FMostly cloudy.12 mph90%29.66 "HgN/A
5:55 AM63 °FMostly cloudy.14 mph90%29.63 "HgN/A
4:55 AM61 °FFog.12 mph97%29.60 "Hg6 mi
3:55 AM57 °FFog.6 mph96%29.61 "Hg4 mi
2:55 AM57 °FSprinkles. Fog.No wind96%29.63 "Hg2 mi
1:55 AM56 °FFog.No wind97%29.63 "Hg1 mi
12:55 AM56 °FFog.5 mph97%29.64 "Hg1 mi
11:55 PM
Sat, Feb 13
56 °FSprinkles. Fog.No wind97%29.70 "Hg1 mi
10:55 PM57 °FStrong thunderstorms. Fog.No wind96%29.74 "Hg1 mi
9:55 PM56 °FRain showers. Fog.3 mph97%29.75 "Hg1 mi
8:55 PM56 °FThunderstorms. Fog.No wind97%29.77 "Hg1 mi
7:55 PM56 °FRain showers. Fog.9 mph97%29.78 "Hg1 mi
6:55 PM56 °FSprinkles. Fog.No wind97%29.84 "Hg1 mi
5:55 PM55 °FSprinkles. Fog.No wind96%29.85 "Hg2 mi
4:55 PM55 °FFog.6 mph96%29.85 "Hg3 mi
3:55 PM55 °FRain showers. Fog.3 mph96%29.88 "Hg1 mi
2:55 PM55 °FSprinkles. Fog.No wind96%29.91 "Hg2 mi
1:55 PM54 °FSprinkles. Fog.3 mph97%29.93 "Hg2 mi
12:55 PM54 °FSprinkles. Fog.5 mph97%29.96 "Hg1 mi
11:55 AM54 °FRain showers. Fog.3 mph97%30.00 "Hg1 mi
10:55 AM55 °FSprinkles. Fog.No wind96%30.03 "Hg2 mi
9:55 AM55 °FRain showers. Fog.8 mph96%30.05 "Hg2 mi
Weather by CustomWeather, © 2016

See weather overviewHow to use our weather pages